Location: Wildlife_Club
(35.6000°N, 81.4330°W)
Time: 04:33:40
(UTC-04:00)

Amateur Radio Satellites - All Passes

Search period start: 24 August 2016 04:03
Search period end: 25 August 2016 04:03
Location: Wildlife_Club, 35.6000°N, 81.4330°W

Satellite Date Start Highest point End Downlink Frequencies (MHz)
Time Altitude Azimuth
Gurwin Techsat 1B 24 Aug 04:10:48 04:15:45 41° 289° (WNW) 04:20:41 435.225
STARS 24 Aug 04:25:20 04:29:06 28° 70° (ENE) 04:32:54 437.465
ITAMSAT 1 24 Aug 04:39:16 04:44:26 74° 285° (WNW) 04:49:35 435.822/435.867
MOZHAYETS 4 24 Aug 04:48:18 04:52:49 59° 260° (W) 04:57:19
AO-7 24 Aug 05:10:59 05:19:19 76° 105° (ESE) 05:27:35 29.400- 29.500
PHONESAT 2.4 24 Aug 05:12:41 05:15:36 48° 345° (NNW) 05:18:31 2401.200-2431.200
KKS-1 24 Aug 05:13:41 05:17:47 36° 261° (W) 05:21:58 437.445
AO-85 24 Aug 05:35:47 05:38:14 13° 107° (ESE) 05:40:39 145.980
Cosmos 2491 24 Aug 05:46:33 05:54:30 36° 74° (ENE) 06:02:23 435.465 / 435.565
CUBESAT XI-V 24 Aug 05:56:44 06:01:19 87° 77° (ENE) 06:05:58 437.345
STARS 24 Aug 06:01:56 06:05:24 22° 264° (W) 06:08:52 437.465
RS-15 24 Aug 06:14:27 06:22:14 19° 337° (NNW) 06:30:15 29.354- 29.394
HORYU 2 24 Aug 06:29:44 06:34:10 82° 103° (ESE) 06:38:35 437.375
Cubesat XI-IV 24 Aug 06:37:19 06:40:29 16° 93° (E) 06:43:38 437.490
GOMX 1 24 Aug 06:45:26 06:49:29 21° 92° (E) 06:53:23 467.674
BRITE-PL 24 Aug 06:46:51 06:52:24 51° 99° (E) 06:57:50 437.365/2234.400
PHONESAT 2.4 24 Aug 06:49:36 06:52:18 30° 1° (N) 06:55:00 2401.200-2431.200
CUTE-I 24 Aug 06:49:48 06:53:51 22° 95° (E) 06:57:52 437.470
NOAA 18 24 Aug 06:54:44 06:58:52 22° 95° (E) 07:02:59 137.9125
YUBILEINY 24 Aug 06:57:58 07:06:18 48° 89° (E) 07:14:38 435.215
NOAA 15 24 Aug 07:04:05 07:09:03 40° 99° (E) 07:14:00 137.62
AO-7 24 Aug 07:05:14 07:11:13 23° 303° (WNW) 07:17:13 29.400- 29.500
AO-85 24 Aug 07:12:51 07:18:12 72° 300° (WNW) 07:23:18 145.980
DOVE 4 24 Aug 07:13:44 07:16:52 16° 91° (E) 07:19:54 437.250
STRAND 1 24 Aug 07:14:18 07:18:44 31° 69° (ENE) 07:23:11 437.568
LilacSat-2 24 Aug 07:25:40 07:29:21 51° 100° (E) 07:33:00 437.200
Cosmos 2491 24 Aug 07:43:10 07:51:22 45° 272° (W) 07:59:34 435.465 / 435.565
HO-68 24 Aug 07:49:29 07:51:49 12° 90° (E) 07:54:08 435.675
Cosmos 2504 24 Aug 07:52:08 07:59:52 38° 88° (E) 08:07:10 435.465 / 435.565
Cubesat XI-IV 24 Aug 08:15:39 08:20:50 54° 287° (WNW) 08:25:59 437.490
GOMX 1 24 Aug 08:22:33 08:27:40 43° 288° (WNW) 08:32:36 467.674
CINEMA 3 24 Aug 08:23:56 08:27:27 22° 94° (E) 08:30:50 145.822/145.860
PHONESAT 2.4 24 Aug 08:26:00 08:28:59 59° 18° (NNE) 08:31:56 2401.200-2431.200
BRITE-PL 24 Aug 08:26:17 08:30:23 21° 294° (WNW) 08:34:29 437.365/2234.400
CUTE-I 24 Aug 08:29:04 08:33:59 40° 289° (WNW) 08:38:53 437.470
SEEDS 24 Aug 08:29:49 08:31:27 12° 92° (E) 08:33:04 437.485
NOAA 18 24 Aug 08:34:32 08:39:39 42° 290° (WNW) 08:44:45 137.9125
RS-15 24 Aug 08:35:04 08:42:02 16° 15° (NNE) 08:49:01 29.354- 29.394
CANX-2 24 Aug 08:41:08 08:44:50 29° 97° (E) 08:48:31 2200.000
NOAA 15 24 Aug 08:44:28 08:48:32 23° 293° (WNW) 08:52:36 137.62
CUTE 1.7 + AOD 2 24 Aug 08:48:02 08:51:47 30° 97° (E) 08:55:30 437.475
DOVE 4 24 Aug 08:49:56 08:54:50 47° 287° (WNW) 08:59:28 437.250
STRAND 1 24 Aug 08:53:36 08:57:51 26° 264° (W) 09:02:07 437.568
YUBILEINY 24 Aug 08:55:31 09:03:14 33° 287° (WNW) 09:11:00 435.215
AO-85 24 Aug 08:58:15 08:59:27 11° 317° (NW) 09:00:38 145.980
PRISM 24 Aug 09:04:02 09:07:53 43° 73° (ENE) 09:11:47 437.425
CUBEBUG 2 24 Aug 09:09:34 09:12:25 17° 93° (E) 09:15:13 437.445
AAUSAT CUBESAT 2 24 Aug 09:11:26 09:14:33 20° 95° (E) 09:17:38 437.432
COMPASS 1 24 Aug 09:14:58 09:18:36 29° 97° (E) 09:22:15 437.405
UWE-3 24 Aug 09:16:31 09:18:31 13° 92° (E) 09:20:30 435.000/436.395/437.385
HO-68 24 Aug 09:33:09 09:40:22 85° 105° (ESE) 09:47:31 435.675
ZACube-1 24 Aug 09:39:49 09:42:19 15° 93° (E) 09:44:48 437.345
Cosmos 2504 24 Aug 09:45:08 09:53:05 40° 283° (WNW) 10:00:37 435.465 / 435.565
TIGRISAT 24 Aug 09:50:37 09:52:57 14° 66° (ENE) 09:55:16 435.000
CINEMA 3 24 Aug 10:00:40 10:04:34 28° 290° (WNW) 10:08:19 145.822/145.860
PHONESAT 2.4 24 Aug 10:02:43 10:05:11 23° 213° (SSW) 10:07:40 2401.200-2431.200
SEEDS 24 Aug 10:03:19 10:07:20 45° 286° (WNW) 10:11:21 437.485
BEESAT 3 24 Aug 10:08:11 10:09:50 12° 108° (ESE) 10:11:30 437.485
SO-50 24 Aug 10:09:45 10:14:12 48° 57° (ENE) 10:18:31 436.795
CUSAT 1 24 Aug 10:13:03 10:16:37 15° 72° (ENE) 10:20:31 437.405
UNISAT 6 24 Aug 10:16:04 10:20:00 28° 71° (ENE) 10:23:54 437.425
CANX-2 24 Aug 10:17:25 10:20:28 20° 291° (WNW) 10:23:31 2200.000
ISS 24 Aug 10:18:33 10:21:45 60° 135° (SE) 10:24:59 145.825
CUTE 1.7 + AOD 2 24 Aug 10:24:24 10:27:23 19° 291° (WNW) 10:30:22 437.475
AIST 1 24 Aug 10:37:19 10:41:38 80° 276° (W) 10:46:01
PRISM 24 Aug 10:41:51 10:43:24 12° 267° (W) 10:44:57 437.425
CUBEBUG 2 24 Aug 10:45:21 10:49:06 31° 289° (WNW) 10:52:46 437.445
AAUSAT CUBESAT 2 24 Aug 10:46:29 10:49:58 27° 289° (WNW) 10:53:28 437.432
RS-15 24 Aug 10:47:52 10:59:24 42° 47° (NE) 11:10:43 29.354- 29.394
COMPASS 1 24 Aug 10:50:58 10:53:56 19° 291° (WNW) 10:56:55 437.405
UWE-3 24 Aug 10:51:14 10:55:11 40° 287° (WNW) 10:59:02 435.000/436.395/437.385
ANTELSAT 24 Aug 10:52:24 10:57:02 71° 76° (ENE) 11:01:36 437.575/2403.000
Oscar 11 24 Aug 10:53:19 10:57:35 63° 284° (WNW) 11:01:50 145.826/435.025
FUNcube-1 24 Aug 10:55:25 10:59:31 63° 285° (WNW) 11:03:35 145.935
HUMSAT D 24 Aug 11:00:12 11:03:38 26° 96° (E) 11:07:03 437.325/437.525
ZACube-1 24 Aug 11:14:57 11:18:43 33° 287° (WNW) 11:22:25 437.345
BEESAT 2 24 Aug 11:17:10 11:20:53 41° 115° (ESE) 11:24:37 435.950
GONETS M04 24 Aug 11:19:16 11:21:41 11° 76° (ENE) 11:24:04
HO-68 24 Aug 11:22:57 11:27:09 17° 302° (WNW) 11:31:21 435.675
DELFI C3 24 Aug 11:23:14 11:27:12 66° 284° (WNW) 11:31:10 145.870
TIGRISAT 24 Aug 11:24:38 11:29:11 52° 260° (W) 11:33:40 435.000
JAS-2 24 Aug 11:36:56 11:39:42 15° 62° (ENE) 11:42:32 435.910
QB50P1 24 Aug 11:38:06 11:41:49 30° 71° (ENE) 11:45:33 145.935-145.965
BEESAT 3 24 Aug 11:43:21 11:47:05 43° 303° (WNW) 11:50:50 437.485
AUBIESAT-1 24 Aug 11:46:52 11:49:35 17° 97° (E) 11:52:11 437.475
POPSAT HIP 1 24 Aug 11:47:27 11:51:24 37° 73° (ENE) 11:55:22 437.405
M-CUBED/EXP-1 PRIME 24 Aug 11:48:37 11:51:58 24° 99° (E) 11:55:06 437.505
SO-50 24 Aug 11:51:42 11:54:11 15° 252° (WSW) 11:56:38 436.795
CUSAT 1 24 Aug 11:52:34 11:58:51 84° 262° (W) 12:06:31 437.405
UNISAT 6 24 Aug 11:52:51 11:56:38 24° 264° (W) 12:00:23 437.425
ISS 24 Aug 11:56:21 11:58:26 16° 332° (NNW) 12:00:31 145.825
BUGSAT 1 24 Aug 11:57:07 12:00:00 18° 68° (ENE) 12:02:54 437.445
CUBEBUG 1 24 Aug 12:03:05 12:05:15 13° 92° (E) 12:07:23 437.445
DANDE 24 Aug 12:12:16 12:17:24 57° 81° (E) 12:24:07 436.750
ESTCUBE 1 24 Aug 12:13:10 12:17:06 28° 97° (E) 12:21:01 437.505/2401.250
QB50P2 24 Aug 12:16:27 12:20:44 87° 257° (WSW) 12:25:03 145.880/145.840
POLYITAN 1 24 Aug 12:18:59 12:23:16 86° 254° (WSW) 12:27:35 437.675
DUCHIFAT 1 24 Aug 12:19:31 12:23:46 83° 77° (ENE) 12:28:03 145.980
DX 1 24 Aug 12:22:07 12:23:23 11° 92° (E) 12:24:38 434.975-435.025
NANOSAT C BR1 24 Aug 12:31:25 12:35:39 65° 259° (W) 12:39:54 145.865
HUMSAT D 24 Aug 12:36:04 12:39:04 20° 290° (WNW) 12:42:04 437.325/437.525
AISAT 24 Aug 12:37:43 12:41:37 29° 97° (E) 12:45:28 437.250
SPROUT 24 Aug 12:39:01 12:41:02 13° 93° (E) 12:43:01 437.525
BEESAT 2 24 Aug 12:56:28 12:58:53 16° 311° (NW) 13:01:19 435.950
AIST 2 24 Aug 12:56:45 12:59:36 18° 110° (ESE) 13:02:26 435.215
RS-15 24 Aug 13:00:24 13:12:24 61° 249° (WSW) 13:24:07 29.354- 29.394
Cosmos 2499 24 Aug 13:00:45 13:08:50 54° 91° (E) 13:16:21 435.465 / 435.565
UKube-1 24 Aug 13:07:47 13:11:37 30° 98° (E) 13:15:25 .
GONETS M04 24 Aug 13:08:11 13:16:52 77° 94° (E) 13:25:39
Oscar 19 24 Aug 13:10:26 13:14:27 24° 67° (ENE) 13:18:30 437.125/150
QB50P1 24 Aug 13:14:29 13:17:35 19° 265° (W) 13:20:41 145.935-145.965
50 SAT 24 Aug 13:18:46 13:22:24 82° 284° (WNW) 13:26:03 437.505
JAS-2 24 Aug 13:19:10 13:24:14 56° 260° (W) 13:29:28 435.910
AUBIESAT-1 24 Aug 13:20:31 13:24:07 29° 294° (WNW) 13:27:28 437.475
PCSat 24 Aug 13:22:24 13:27:48 88° 296° (WNW) 13:33:16 145.827
M-CUBED/EXP-1 PRIME 24 Aug 13:23:02 13:26:22 23° 296° (WNW) 13:29:30 437.505
POPSAT HIP 1 24 Aug 13:24:44 13:27:17 15° 266° (W) 13:29:50 437.405
VELOX 1 24 Aug 13:25:03 13:29:31 82° 283° (WNW) 13:33:58 145.980
BUGSAT 1 24 Aug 13:31:17 13:35:06 33° 263° (W) 13:38:57 437.445
CUBEBUG 1 24 Aug 13:37:29 13:41:44 46° 287° (WNW) 13:45:56 437.445
CUSAT 1 24 Aug 13:37:57 13:40:23 12° 273° (W) 13:42:56 437.405
JUGNU 24 Aug 13:43:44 13:47:00 15° 173° (S) 13:50:16 437.505
Gurwin Techsat 1B 24 Aug 13:49:54 13:54:13 26° 68° (ENE) 13:58:34 435.225
ESTCUBE 1 24 Aug 13:50:11 13:53:44 23° 291° (WNW) 13:57:17 437.505/2401.250
DX 1 24 Aug 13:55:33 13:59:51 54° 286° (WNW) 14:04:06 434.975-435.025
DANDE 24 Aug 13:56:27 14:00:02 18° 268° (W) 14:04:11 436.750
SPROUT 24 Aug 14:13:06 14:17:10 43° 287° (WNW) 14:21:11 437.525
AISAT 24 Aug 14:14:28 14:17:53 22° 291° (WNW) 14:21:18 437.250
O/OREOS (USA 219) 24 Aug 14:16:28 14:19:20 17° 100° (E) 14:22:13 437.305
ITAMSAT 1 24 Aug 14:17:55 14:20:30 14° 63° (ENE) 14:23:03 435.822/435.867
AO-7 24 Aug 14:18:41 14:23:09 16° 52° (NE) 14:27:35 29.400- 29.500
AIST 2 24 Aug 14:34:06 14:37:47 32° 305° (NW) 14:41:32 435.215
UKube-1 24 Aug 14:44:15 14:47:25 20° 292° (WNW) 14:50:35 .
TISAT 1 24 Aug 14:45:49 14:50:02 87° 102° (ESE) 14:54:13 437.305
Oscar 19 24 Aug 14:48:49 14:53:31 36° 262° (W) 14:58:17 437.125/150
Cosmos 2499 24 Aug 14:55:22 15:02:09 27° 286° (WNW) 15:08:36 435.465 / 435.565
ITUPSAT 1 24 Aug 15:07:53 15:11:45 24° 96° (E) 15:15:36 437.325
GONETS M04 24 Aug 15:08:33 15:14:33 20° 292° (WNW) 15:20:39
PCSat 24 Aug 15:09:38 15:11:58 13° 314° (NW) 15:14:19 145.827
SRMSAT 24 Aug 15:14:20 15:16:42 12° 168° (SSE) 15:19:05 437.500
Gurwin Techsat 1B 24 Aug 15:29:12 15:33:59 34° 262° (W) 15:38:48 435.225
JUGNU 24 Aug 15:31:42 15:35:15 16° 183° (S) 15:38:47 437.505
SWISSCUBE 24 Aug 15:42:22 15:47:06 67° 101° (ESE) 15:51:50 437.505
AO-85 24 Aug 15:48:19 15:52:18 39° 55° (NE) 15:56:00 145.980
ITAMSAT 1 24 Aug 15:54:13 15:59:22 65° 258° (WSW) 16:04:32 435.822/435.867
O/OREOS (USA 219) 24 Aug 15:54:14 15:58:22 36° 295° (WNW) 16:02:34 437.305
BEESAT 24 Aug 15:59:55 16:04:42 88° 283° (WNW) 16:09:27 436.000
AO-7 24 Aug 16:06:13 16:14:35 78° 70° (ENE) 16:22:56 29.400- 29.500
ITUPSAT 1 24 Aug 16:45:25 16:49:32 30° 290° (WNW) 16:53:38 437.325
MOZHAYETS 4 24 Aug 16:46:16 16:50:33 39° 98° (E) 16:54:50
ISS 24 Aug 16:48:55 16:51:31 21° 32° (NNE) 16:54:05 145.825
SRMSAT 24 Aug 17:01:27 17:05:06 17° 178° (S) 17:08:44 437.500
KKS-1 24 Aug 17:07:10 17:11:32 51° 101° (E) 17:15:51 437.445
YUBILEINY 24 Aug 17:13:05 17:19:04 20° 67° (ENE) 17:24:58 435.215
JUGNU 24 Aug 17:21:47 17:23:28 11° 193° (SSW) 17:25:08 437.505
SWISSCUBE 24 Aug 17:22:42 17:24:18 12° 297° (WNW) 17:25:52 437.505
HORYU 2 24 Aug 17:24:34 17:28:54 51° 73° (ENE) 17:33:13 437.375
AO-85 24 Aug 17:30:10 17:32:15 14° 253° (WSW) 17:34:18 145.980
GOMX 1 24 Aug 17:51:05 17:54:07 16° 64° (ENE) 17:57:14 467.674
STARS 24 Aug 17:53:04 17:57:29 83° 101° (ESE) 18:01:52 437.465
BRITE-PL 24 Aug 17:54:54 17:59:10 37° 71° (ENE) 18:03:47 437.365/2234.400
Cubesat XI-IV 24 Aug 17:56:16 18:00:11 21° 66° (ENE) 18:04:07 437.490
CUBESAT XI-V 24 Aug 17:56:36 18:00:37 27° 96° (E) 18:04:36 437.345
AO-7 24 Aug 18:02:28 18:08:00 19° 266° (W) 18:13:34 29.400- 29.500
LilacSat-2 24 Aug 18:05:38 18:08:13 17° 70° (ENE) 18:10:48 437.200
CUTE-I 24 Aug 18:08:41 18:13:09 28° 68° (ENE) 18:17:35 437.470
DOVE 4 24 Aug 18:16:43 18:19:08 13° 63° (ENE) 18:21:36 437.250
NOAA 18 24 Aug 18:17:48 18:22:40 32° 68° (ENE) 18:27:32 137.9125
NOAA 15 24 Aug 18:21:11 18:26:11 47° 72° (ENE) 18:31:13 137.62
MOZHAYETS 4 24 Aug 18:24:24 18:27:23 17° 293° (WNW) 18:30:22
ISS 24 Aug 18:24:59 18:27:58 34° 228° (SW) 18:30:58 145.825
Cosmos 2491 24 Aug 18:43:50 18:51:55 45° 88° (E) 19:00:02 435.465 / 435.565
KKS-1 24 Aug 18:45:31 18:47:36 13° 295° (WNW) 18:49:41 437.445
SRMSAT 24 Aug 18:50:26 18:53:30 14° 189° (S) 18:56:34 437.500
HORYU 2 24 Aug 19:03:52 19:05:41 12° 267° (W) 19:07:31 437.375
YUBILEINY 24 Aug 19:07:59 19:16:45 78° 266° (W) 19:25:26 435.215
CINEMA 3 24 Aug 19:22:35 19:25:52 18° 67° (ENE) 19:29:07 145.822/145.860
GOMX 1 24 Aug 19:26:50 19:31:36 54° 261° (W) 19:36:43 467.674
STRAND 1 24 Aug 19:29:21 19:31:33 13° 92° (E) 19:33:46 437.568
CANX-2 24 Aug 19:32:14 19:34:37 15° 68° (ENE) 19:37:01 2200.000
CUBESAT XI-V 24 Aug 19:34:01 19:37:52 26° 290° (WNW) 19:41:42 437.345
BRITE-PL 24 Aug 19:34:29 19:37:48 19° 268° (W) 19:41:19 437.365/2234.400
Cubesat XI-IV 24 Aug 19:34:51 19:39:55 44° 261° (W) 19:45:01 437.490
CUTE 1.7 + AOD 2 24 Aug 19:38:58 19:41:27 15° 68° (ENE) 19:43:55 437.475
LilacSat-2 24 Aug 19:39:01 19:42:18 26° 263° (W) 19:45:36 437.200
BEESAT 2 24 Aug 19:39:24 19:40:58 12° 47° (NE) 19:42:32 435.950
Cosmos 2504 24 Aug 19:40:56 19:48:07 62° 81° (E) 19:55:10 435.465 / 435.565
CUTE-I 24 Aug 19:48:17 19:53:02 32° 263° (W) 19:57:48 437.470
DOVE 4 24 Aug 19:51:07 19:56:07 68° 259° (W) 20:01:21 437.250
HO-68 24 Aug 19:58:17 20:05:04 47° 68° (ENE) 20:11:53 435.675
NOAA 18 24 Aug 19:58:28 20:03:15 29° 263° (W) 20:08:03 137.9125
NOAA 15 24 Aug 20:02:41 20:06:10 18° 266° (W) 20:09:40 137.62
BEESAT 3 24 Aug 20:03:06 20:06:49 38° 56° (ENE) 20:10:31 437.485
COMPASS 1 24 Aug 20:04:13 20:06:21 14° 67° (ENE) 20:08:29 437.405
CUBEBUG 2 24 Aug 20:05:38 20:07:43 13° 66° (ENE) 20:09:48 437.445
ZACube-1 24 Aug 20:35:09 20:35:31 10° 65° (ENE) 20:35:53 437.345
Cosmos 2491 24 Aug 20:41:04 20:48:48 35° 286° (WNW) 20:56:37 435.465 / 435.565
AIST 1 24 Aug 20:48:18 20:51:25 19° 75° (ENE) 20:54:30
SEEDS 24 Aug 20:51:32 20:55:42 80° 77° (ENE) 20:59:52 437.485
CINEMA 3 24 Aug 20:57:44 21:02:33 48° 261° (W) 21:07:24 145.822/145.860
STRAND 1 24 Aug 21:06:03 21:11:05 62° 286° (WNW) 21:16:06 437.568
CANX-2 24 Aug 21:06:12 21:10:07 38° 262° (W) 21:14:04 2200.000
YUBILEINY 24 Aug 21:09:21 21:11:57 12° 284° (WNW) 21:14:33 435.215
CUTE 1.7 + AOD 2 24 Aug 21:13:03 21:16:56 37° 262° (W) 21:20:51 437.475
BEESAT 2 24 Aug 21:15:12 21:19:10 61° 243° (WSW) 21:23:06 435.950
AAUSAT CUBESAT 2 24 Aug 21:32:52 21:36:55 60° 260° (W) 21:40:59 437.432
Cosmos 2504 24 Aug 21:36:02 21:40:42 19° 278° (W) 21:45:21 435.465 / 435.565
COMPASS 1 24 Aug 21:37:39 21:41:32 40° 262° (W) 21:45:26 437.405
CUBEBUG 2 24 Aug 21:39:10 21:43:50 59° 260° (W) 21:48:26 437.445
BEESAT 3 24 Aug 21:41:56 21:44:07 14° 251° (WSW) 21:46:18 437.485
UWE-3 24 Aug 21:44:10 21:48:48 78° 259° (W) 21:53:22 435.000/436.395/437.385
Oscar 11 24 Aug 21:44:41 21:48:58 66° 76° (ENE) 21:53:14 145.826/435.025
HO-68 24 Aug 21:46:48 21:52:53 29° 263° (W) 21:59:00 435.675
FUNcube-1 24 Aug 21:47:14 21:51:41 66° 76° (ENE) 21:56:05 145.935
HUMSAT D 24 Aug 21:49:57 21:52:00 13° 67° (ENE) 21:54:02 437.325/437.525
DELFI C3 24 Aug 22:05:59 22:09:42 43° 75° (ENE) 22:13:26 145.870
ZACube-1 24 Aug 22:06:43 22:11:13 68° 259° (W) 22:15:39 437.345
PCSat 24 Aug 22:13:27 22:18:31 39° 58° (ENE) 22:23:33 145.827
PRISM 24 Aug 22:23:13 22:27:24 73° 285° (WNW) 22:31:34 437.425
AIST 1 24 Aug 22:25:10 22:29:01 30° 270° (W) 22:32:51
AUBIESAT-1 24 Aug 22:29:22 22:32:28 18° 62° (ENE) 22:35:36 437.475
M-CUBED/EXP-1 PRIME 24 Aug 22:31:22 22:35:01 23° 64° (ENE) 22:38:43 437.505
ANTELSAT 24 Aug 22:48:23 22:51:12 17° 94° (E) 22:54:01 437.575/2403.000
AIST 2 24 Aug 22:57:34 23:01:43 62° 59° (ENE) 23:05:51 435.215
Cosmos 2499 24 Aug 22:58:54 23:01:08 11° 65° (ENE) 23:03:21 435.465 / 435.565
ESTCUBE 1 24 Aug 23:10:31 23:13:39 19° 68° (ENE) 23:16:47 437.505/2401.250
TIGRISAT 24 Aug 23:19:22 23:23:22 37° 98° (E) 23:27:18 435.000
GONETS M04 24 Aug 23:22:45 23:30:30 33° 73° (ENE) 23:38:11
HUMSAT D 24 Aug 23:23:13 23:27:13 43° 261° (W) 23:31:11 437.325/437.525
AISAT 24 Aug 23:32:49 23:35:55 19° 68° (ENE) 23:39:02 437.250
DELFI C3 24 Aug 23:43:46 23:44:45 11° 268° (W) 23:45:43 145.870
UNISAT 6 24 Aug 23:46:38 23:50:57 90° 84° (E) 23:55:12 437.425
50 SAT 24 Aug 23:53:30 23:56:27 25° 72° (ENE) 23:59:26 437.505
PCSat 24 Aug 23:57:20 00:01:39 25° 253° (WSW) 00:05:57 145.827
UKube-1 25 Aug 00:00:07 00:03:06 18° 68° (ENE) 00:06:05 .
AUBIESAT-1 25 Aug 00:02:11 00:06:31 44° 257° (WSW) 00:10:57 437.475
M-CUBED/EXP-1 PRIME 25 Aug 00:05:07 00:09:16 33° 258° (WSW) 00:13:32 437.505
QB50P2 25 Aug 00:05:21 00:08:19 18° 95° (E) 00:11:16 145.880/145.840
POLYITAN 1 25 Aug 00:07:52 00:10:51 19° 95° (E) 00:13:49 437.675
DUCHIFAT 1 25 Aug 00:07:53 00:10:29 16° 94° (E) 00:13:03 145.980
VELOX 1 25 Aug 00:19:04 00:23:25 59° 75° (ENE) 00:27:48 145.980
NANOSAT C BR1 25 Aug 00:19:20 00:22:44 24° 96° (E) 00:26:08 145.865
SO-50 25 Aug 00:20:56 00:25:15 33° 113° (ESE) 00:29:33 436.795
ANTELSAT 25 Aug 00:24:09 00:27:59 32° 288° (WNW) 00:31:47 437.575/2403.000
O/OREOS (USA 219) 25 Aug 00:28:12 00:31:46 22° 61° (ENE) 00:35:19 437.305
CUBEBUG 1 25 Aug 00:29:52 00:34:15 83° 259° (W) 00:38:40 437.445
JAS-2 25 Aug 00:29:57 00:35:22 24° 95° (E) 00:41:11 435.910
ESTCUBE 1 25 Aug 00:46:07 00:50:10 34° 262° (W) 00:54:16 437.505/2401.250
DX 1 25 Aug 00:47:38 00:51:58 87° 83° (E) 00:56:22 434.975-435.025
Cosmos 2499 25 Aug 00:48:09 00:55:16 87° 87° (E) 01:02:25 435.465 / 435.565
CUSAT 1 25 Aug 00:55:31 00:58:05 43° 282° (WNW) 01:01:02 437.405
TIGRISAT 25 Aug 00:57:10 00:59:43 16° 293° (WNW) 01:02:14 435.000
QB50P1 25 Aug 01:00:44 01:04:58 84° 102° (ESE) 01:09:10 145.935-145.965
SPROUT 25 Aug 01:03:00 01:07:18 88° 260° (W) 01:11:39 437.525
AISAT 25 Aug 01:08:04 01:12:06 34° 262° (W) 01:16:10 437.250
RS-15 25 Aug 01:09:06 01:18:24 30° 103° (ESE) 01:28:02 29.354- 29.394
POPSAT HIP 1 25 Aug 01:10:27 01:14:40 75° 282° (WNW) 01:18:50 437.405
BUGSAT 1 25 Aug 01:15:46 01:19:42 42° 99° (E) 01:23:35 437.445
GONETS M04 25 Aug 01:19:06 01:27:29 49° 271° (W) 01:35:50
DANDE 25 Aug 01:21:24 01:24:03 76° 96° (E) 01:26:39 436.750
50 SAT 25 Aug 01:27:51 01:30:01 15° 265° (W) 01:32:12 437.505
TISAT 1 25 Aug 01:34:17 01:38:17 41° 73° (ENE) 01:42:18 437.305
UKube-1 25 Aug 01:34:59 01:38:51 33° 262° (W) 01:42:47 .
QB50P2 25 Aug 01:40:26 01:44:07 30° 289° (WNW) 01:47:47 145.880/145.840
DUCHIFAT 1 25 Aug 01:42:27 01:46:15 34° 288° (WNW) 01:50:01 145.980
POLYITAN 1 25 Aug 01:42:59 01:46:40 29° 289° (WNW) 01:50:17 437.675
NANOSAT C BR1 25 Aug 01:55:00 01:58:21 23° 290° (WNW) 02:01:41 145.865
VELOX 1 25 Aug 01:59:48 02:00:13 10° 269° (W) 02:00:38 145.980
SO-50 25 Aug 02:01:35 02:05:43 27° 308° (NW) 02:09:50 436.795
O/OREOS (USA 219) 25 Aug 02:07:07 02:11:10 31° 257° (WSW) 02:15:13 437.305
Gurwin Techsat 1B 25 Aug 02:10:38 02:12:42 12° 91° (E) 02:14:46 435.225
ITUPSAT 1 25 Aug 02:12:11 02:15:43 21° 67° (ENE) 02:19:15 437.325
JAS-2 25 Aug 02:13:56 02:20:31 57° 287° (WNW) 02:27:48 435.910
PHONESAT 2.4 25 Aug 02:30:10 02:31:59 15° 145° (SE) 02:33:49 2401.200-2431.200
Cosmos 2499 25 Aug 02:45:06 02:47:15 12° 280° (W) 02:49:25 435.465 / 435.565
SWISSCUBE 25 Aug 02:45:45 02:50:23 54° 74° (ENE) 02:55:01 437.505
BUGSAT 1 25 Aug 02:52:38 02:54:40 13° 294° (WNW) 02:56:41 437.445
Oscar 19 25 Aug 03:02:46 03:08:00 82° 284° (WNW) 03:13:11 437.125/150
BEESAT 25 Aug 03:03:07 03:07:52 76° 77° (ENE) 03:12:38 436.000
TISAT 1 25 Aug 03:11:57 03:14:05 14° 267° (W) 03:16:14 437.305
RS-15 25 Aug 03:18:20 03:29:45 69° 303° (WNW) 03:41:53 29.354- 29.394
MOZHAYETS 4 25 Aug 03:45:30 03:49:18 27° 70° (ENE) 03:53:07
Gurwin Techsat 1B 25 Aug 03:47:47 03:53:04 68° 286° (WNW) 03:58:20 435.225
ITUPSAT 1 25 Aug 03:48:57 03:53:17 35° 262° (W) 03:57:39 437.325
